O3B FM5

Last updated on Wed Jun 24 2026 00:03:25 GMT+0000 (Coordinated Universal Time)

1 39188U 13031A 26173.63691682 -.00000023 00000+0 00000+0 0 9991 2 39188 0.0976 342.4991 0002895 96.7894 280.7426 5.00115611237317
UTC large
Height (km)
Speed (km/s)
/
Latitude / Longitude
Inclination (degrees)
Orbital Period (minutes)
Azimuth
Elevation
Range (km)
Doppler Factor

Next 0 passes for location: London (51.5072 / 0.1276)

No passes found over London.
O3B FM5